SWA270 KIND-KBNA

Flight info

Callsign SWA270
Flight time 0h 52m
Altitude 34000
Route OOM5 OOM WEGEE ULTRA RYYMN3
Aircraft B738/M-SADE2E3GIJ4RWZ/LB1D1

Departure

Time 2026-05-05 23:35
Airport Indianapolis International Airport (KIND)

Arrival

Time 2026-05-06 00:27
Airport Nashville International Airport (KBNA)
Time Latitude Longitude Altitude Speed Heading
2026-05-05 23:07 39.71820 -86.29733 775 ft 0 kts 129°
2026-05-05 23:23 39.71829 -86.29747 774 ft 2 kts 129°
2026-05-05 23:24 39.71839 -86.29762 774 ft 2 kts 129°
2026-05-05 23:24 39.71849 -86.29778 774 ft 2 kts 129°
2026-05-05 23:24 39.71858 -86.29793 773 ft 2 kts 129°
2026-05-05 23:24 39.71867 -86.29808 773 ft 2 kts 128°
2026-05-05 23:25 39.71879 -86.29814 773 ft 2 kts 193°
2026-05-05 23:25 39.71887 -86.29810 773 ft 0 kts 225°
2026-05-05 23:25 39.71891 -86.29805 773 ft 0 kts 222°
2026-05-05 23:28 39.71883 -86.29813 773 ft 5 kts 219°
2026-05-05 23:28 39.71844 -86.29868 772 ft 9 kts 255°
2026-05-05 23:29 39.71872 -86.29966 770 ft 14 kts 313°
2026-05-05 23:29 39.71939 -86.30057 768 ft 14 kts 309°
2026-05-05 23:29 39.71914 -86.30157 766 ft 12 kts 225°
2026-05-05 23:29 39.71851 -86.30241 765 ft 12 kts 225°
2026-05-05 23:30 39.71784 -86.30325 763 ft 14 kts 225°
2026-05-05 23:30 39.71714 -86.30415 760 ft 13 kts 224°
2026-05-05 23:30 39.71645 -86.30503 759 ft 12 kts 225°
2026-05-05 23:30 39.71585 -86.30579 757 ft 12 kts 225°
2026-05-05 23:31 39.71521 -86.30662 756 ft 13 kts 224°
2026-05-05 23:31 39.71453 -86.30750 755 ft 15 kts 225°
2026-05-05 23:31 39.71378 -86.30843 753 ft 16 kts 224°
2026-05-05 23:31 39.71292 -86.30953 752 ft 17 kts 225°
2026-05-05 23:32 39.71204 -86.31065 750 ft 18 kts 225°
2026-05-05 23:32 39.71104 -86.31193 748 ft 21 kts 225°
2026-05-05 23:32 39.71003 -86.31323 746 ft 21 kts 225°
2026-05-05 23:32 39.70905 -86.31445 746 ft 16 kts 226°
2026-05-05 23:33 39.70822 -86.31554 745 ft 16 kts 225°
2026-05-05 23:33 39.70733 -86.31668 743 ft 19 kts 225°
2026-05-05 23:33 39.70643 -86.31780 742 ft 18 kts 224°
2026-05-05 23:33 39.70605 -86.31848 742 ft 7 kts 277°
2026-05-05 23:34 39.70648 -86.31925 741 ft 17 kts 315°
2026-05-05 23:34 39.70747 -86.31943 742 ft 30 kts 39°
2026-05-05 23:34 39.71090 -86.31506 746 ft 105 kts 43°
2026-05-05 23:34 39.71790 -86.30611 760 ft 170 kts 44°
2026-05-05 23:35 39.72566 -86.29429 1577 ft 173 kts 52°
2026-05-05 23:35 39.73269 -86.28285 2548 ft 162 kts 46°
2026-05-05 23:35 39.74027 -86.27174 3114 ft 170 kts 45°
2026-05-05 23:35 39.74827 -86.26000 3750 ft 176 kts 45°
2026-05-05 23:36 39.75446 -86.24624 4337 ft 187 kts 75°
2026-05-05 23:36 39.75339 -86.22922 4949 ft 196 kts 114°
2026-05-05 23:36 39.74514 -86.21506 5556 ft 202 kts 136°
2026-05-05 23:36 39.73503 -86.20187 6117 ft 212 kts 137°
2026-05-05 23:37 39.72456 -86.18765 6679 ft 223 kts 137°
2026-05-05 23:37 39.71385 -86.17263 7203 ft 236 kts 137°
2026-05-05 23:37 39.70245 -86.15627 7686 ft 254 kts 137°
2026-05-05 23:37 39.69037 -86.13863 8302 ft 265 kts 137°
2026-05-05 23:38 39.67795 -86.12026 8880 ft 278 kts 136°
2026-05-05 23:38 39.66511 -86.10101 9481 ft 289 kts 137°
2026-05-05 23:38 39.65061 -86.08251 10129 ft 289 kts 153°
2026-05-05 23:38 39.63222 -86.07377 10698 ft 284 kts 181°
2026-05-05 23:39 39.61314 -86.07832 11195 ft 283 kts 211°
2026-05-05 23:39 39.59840 -86.09551 11701 ft 290 kts 238°
2026-05-05 23:39 39.58971 -86.11920 12293 ft 299 kts 248°
2026-05-05 23:39 39.58255 -86.14482 13006 ft 304 kts 250°
2026-05-05 23:40 39.57563 -86.17039 13911 ft 302 kts 250°
2026-05-05 23:40 39.56846 -86.19598 14800 ft 300 kts 248°
2026-05-05 23:40 39.55905 -86.21973 15552 ft 303 kts 240°
2026-05-05 23:40 39.54635 -86.24187 16196 ft 310 kts 232°
2026-05-05 23:41 39.53062 -86.26170 16774 ft 320 kts 225°
2026-05-05 23:41 39.51300 -86.27959 17320 ft 329 kts 222°
2026-05-05 23:41 39.49409 -86.29692 17941 ft 333 kts 220°
2026-05-05 23:41 39.47471 -86.31404 18601 ft 336 kts 220°
2026-05-05 23:42 39.45544 -86.33100 19220 ft 339 kts 220°
2026-05-05 23:42 39.43586 -86.34847 19774 ft 343 kts 221°
2026-05-05 23:42 39.41647 -86.36597 20366 ft 345 kts 220°
2026-05-05 23:42 39.39659 -86.38399 20966 ft 347 kts 221°
2026-05-05 23:43 39.37684 -86.40197 21475 ft 350 kts 220°
2026-05-05 23:43 39.35694 -86.42009 21983 ft 354 kts 220°
2026-05-05 23:43 39.33651 -86.43868 22514 ft 356 kts 220°
2026-05-05 23:43 39.31623 -86.45710 22989 ft 360 kts 220°
2026-05-05 23:44 39.29557 -86.47588 23496 ft 362 kts 220°
2026-05-05 23:44 39.27506 -86.49448 24030 ft 364 kts 221°
2026-05-05 23:44 39.25424 -86.51338 24500 ft 367 kts 221°
2026-05-05 23:44 39.23328 -86.53239 25016 ft 368 kts 221°
2026-05-05 23:45 39.21221 -86.55145 25503 ft 370 kts 222°
2026-05-05 23:45 39.19099 -86.57056 25929 ft 373 kts 223°
2026-05-05 23:45 39.16962 -86.58982 26361 ft 376 kts 223°
2026-05-05 23:45 39.14769 -86.60861 26661 ft 384 kts 220°
2026-05-05 23:46 39.12441 -86.62552 27040 ft 391 kts 217°
2026-05-05 23:46 39.09975 -86.64123 27497 ft 394 kts 215°
2026-05-05 23:46 39.07477 -86.65620 27990 ft 395 kts 214°
2026-05-05 23:46 39.04950 -86.67100 28436 ft 397 kts 214°
2026-05-05 23:47 39.02452 -86.68563 28792 ft 400 kts 215°
2026-05-05 23:47 38.99888 -86.70071 29123 ft 404 kts 215°
2026-05-05 23:47 38.97292 -86.71603 29440 ft 408 kts 216°
2026-05-05 23:47 38.94706 -86.73137 29724 ft 412 kts 216°
2026-05-05 23:48 38.92101 -86.74686 30099 ft 414 kts 216°
2026-05-05 23:48 38.89461 -86.76247 30810 ft 408 kts 216°
2026-05-05 23:48 38.86917 -86.77739 31607 ft 398 kts 217°
2026-05-05 23:48 38.84450 -86.79185 32337 ft 389 kts 217°
2026-05-05 23:49 38.81979 -86.80643 32765 ft 387 kts 218°
2026-05-05 23:49 38.79523 -86.82110 33058 ft 388 kts 218°
2026-05-05 23:49 38.77075 -86.83573 33462 ft 387 kts 218°
2026-05-05 23:49 38.74648 -86.85020 33838 ft 386 kts 218°
2026-05-05 23:50 38.69690 -86.87977 33834 ft 389 kts 218°
2026-05-05 23:50 38.64839 -86.90835 33836 ft 386 kts 218°
2026-05-05 23:51 38.59932 -86.93746 33840 ft 388 kts 218°
2026-05-05 23:51 38.55008 -86.96641 33831 ft 387 kts 216°
2026-05-05 23:52 38.49765 -86.98747 33707 ft 405 kts 204°
2026-05-05 23:52 38.46952 -86.99285 33277 ft 409 kts 200°
2026-05-05 23:52 38.44088 -86.99618 32491 ft 419 kts 198°
2026-05-05 23:53 38.41160 -86.99859 31593 ft 427 kts 196°
2026-05-05 23:53 38.38185 -87.00056 30849 ft 430 kts 195°
2026-05-05 23:53 38.35146 -87.00244 30072 ft 433 kts 194°
2026-05-05 23:53 38.32150 -87.00436 29304 ft 435 kts 194°
2026-05-05 23:54 38.29130 -87.00639 28561 ft 436 kts 194°
2026-05-05 23:54 38.26093 -87.00856 27859 ft 435 kts 193°
2026-05-05 23:54 38.23067 -87.01078 27111 ft 435 kts 193°
2026-05-05 23:54 38.20049 -87.01305 26359 ft 436 kts 193°
2026-05-05 23:55 38.17011 -87.01540 25586 ft 436 kts 192°
2026-05-05 23:55 38.13957 -87.01781 24699 ft 439 kts 192°
2026-05-05 23:55 38.10942 -87.02016 24124 ft 434 kts 191°
2026-05-05 23:55 38.07925 -87.02247 23559 ft 430 kts 191°
2026-05-05 23:56 38.04951 -87.02475 23028 ft 424 kts 191°
2026-05-05 23:56 38.02052 -87.02692 22812 ft 411 kts 191°
2026-05-05 23:56 37.99275 -87.02893 22810 ft 393 kts 191°
2026-05-05 23:56 37.96588 -87.03086 22810 ft 376 kts 192°
2026-05-05 23:57 37.94029 -87.03276 22807 ft 359 kts 192°
2026-05-05 23:57 37.91598 -87.03463 22811 ft 343 kts 193°
2026-05-05 23:57 37.89215 -87.03654 22815 ft 339 kts 193°
2026-05-05 23:57 37.86843 -87.03861 22817 ft 345 kts 193°
2026-05-05 23:58 37.84427 -87.04070 22819 ft 345 kts 193°
2026-05-05 23:58 37.82020 -87.04267 22823 ft 343 kts 193°
2026-05-05 23:58 37.79632 -87.04456 22828 ft 342 kts 192°
2026-05-05 23:58 37.77266 -87.04648 22837 ft 345 kts 193°
2026-05-05 23:59 37.74838 -87.04844 22833 ft 345 kts 192°
2026-05-05 23:59 37.72431 -87.05032 22836 ft 346 kts 192°
2026-05-05 23:59 37.70021 -87.05222 22832 ft 345 kts 192°
2026-05-05 23:59 37.67614 -87.05409 22830 ft 345 kts 192°
2026-05-06 00:00 37.65239 -87.05590 22832 ft 344 kts 192°
2026-05-06 00:00 37.62841 -87.05775 22832 ft 345 kts 192°
2026-05-06 00:00 37.60450 -87.05957 22831 ft 344 kts 192°
2026-05-06 00:00 37.58056 -87.06144 22831 ft 346 kts 192°
2026-05-06 00:01 37.55649 -87.06331 22830 ft 345 kts 192°
2026-05-06 00:01 37.53236 -87.06519 22792 ft 342 kts 192°
2026-05-06 00:01 37.50876 -87.06697 22530 ft 337 kts 192°
2026-05-06 00:01 37.48523 -87.06879 22029 ft 337 kts 192°
2026-05-06 00:02 37.46197 -87.07060 21545 ft 338 kts 192°
2026-05-06 00:02 37.43825 -87.07248 20864 ft 344 kts 192°
2026-05-06 00:02 37.41411 -87.07443 20135 ft 350 kts 192°
2026-05-06 00:02 37.38986 -87.07643 19366 ft 357 kts 191°
2026-05-06 00:03 37.36457 -87.07849 18598 ft 363 kts 191°
2026-05-06 00:03 37.33948 -87.08024 18035 ft 362 kts 189°
2026-05-06 00:03 37.31434 -87.08134 17520 ft 360 kts 188°
2026-05-06 00:03 37.28949 -87.08211 17060 ft 356 kts 189°
2026-05-06 00:04 37.26467 -87.08282 16551 ft 353 kts 189°
2026-05-06 00:04 37.24033 -87.08357 16064 ft 350 kts 189°
2026-05-06 00:04 37.21612 -87.08433 15627 ft 345 kts 189°
2026-05-06 00:04 37.19207 -87.08514 15141 ft 342 kts 189°
2026-05-06 00:05 37.14511 -87.08688 14935 ft 339 kts 190°
2026-05-06 00:05 37.12118 -87.08793 14942 ft 345 kts 190°
2026-05-06 00:05 37.09721 -87.08890 14929 ft 343 kts 189°
2026-05-06 00:06 37.07306 -87.08981 14935 ft 343 kts 190°
2026-05-06 00:06 36.99945 -87.09253 14941 ft 345 kts 189°
2026-05-06 00:07 36.97538 -87.09341 14938 ft 345 kts 189°
2026-05-06 00:07 36.95146 -87.09431 14940 ft 344 kts 189°
2026-05-06 00:07 36.92728 -87.09518 14937 ft 344 kts 189°
2026-05-06 00:07 36.90301 -87.09607 14942 ft 347 kts 189°
2026-05-06 00:08 36.87888 -87.09692 14936 ft 344 kts 189°
2026-05-06 00:08 36.85508 -87.09776 14941 ft 343 kts 189°
2026-05-06 00:08 36.83144 -87.09752 14942 ft 332 kts 183°
2026-05-06 00:08 36.80904 -87.09222 14894 ft 327 kts 171°
2026-05-06 00:09 36.78778 -87.08168 14747 ft 322 kts 164°
2026-05-06 00:09 36.76777 -87.06960 14406 ft 321 kts 162°
2026-05-06 00:09 36.74762 -87.05681 13920 ft 323 kts 161°
2026-05-06 00:09 36.72760 -87.04407 13531 ft 321 kts 162°
2026-05-06 00:10 36.70792 -87.03173 13179 ft 317 kts 162°
2026-05-06 00:10 36.68828 -87.01952 12981 ft 309 kts 162°
2026-05-06 00:10 36.66911 -87.00771 12602 ft 307 kts 162°
2026-05-06 00:10 36.64984 -86.99599 12275 ft 303 kts 162°
2026-05-06 00:11 36.63095 -86.98440 11955 ft 301 kts 160°
2026-05-06 00:11 36.61332 -86.96983 11573 ft 310 kts 145°
2026-05-06 00:11 36.60018 -86.94823 11172 ft 322 kts 122°
2026-05-06 00:11 36.59190 -86.92197 10721 ft 327 kts 112°
2026-05-06 00:12 36.58527 -86.89508 10256 ft 329 kts 111°
2026-05-06 00:12 36.57861 -86.86754 9786 ft 331 kts 112°
2026-05-06 00:12 36.57162 -86.84030 9323 ft 331 kts 112°
2026-05-06 00:12 36.56438 -86.81354 9146 ft 318 kts 114°
2026-05-06 00:13 36.55742 -86.78836 8860 ft 304 kts 115°
2026-05-06 00:13 36.55065 -86.76413 8617 ft 289 kts 115°
2026-05-06 00:13 36.54430 -86.74101 8363 ft 276 kts 114°
2026-05-06 00:13 36.53879 -86.71838 8126 ft 264 kts 112°
2026-05-06 00:14 36.53384 -86.69682 7904 ft 253 kts 112°
2026-05-06 00:14 36.52910 -86.67616 7728 ft 244 kts 113°
2026-05-06 00:14 36.52431 -86.65610 7418 ft 244 kts 114°
2026-05-06 00:14 36.51947 -86.63586 7133 ft 242 kts 113°
2026-05-06 00:15 36.51468 -86.61581 6867 ft 241 kts 114°
2026-05-06 00:15 36.50966 -86.59545 6281 ft 253 kts 114°
2026-05-06 00:15 36.50452 -86.57449 5674 ft 259 kts 114°
2026-05-06 00:15 36.49927 -86.55283 5053 ft 262 kts 114°
2026-05-06 00:16 36.49403 -86.53114 4456 ft 264 kts 114°
2026-05-06 00:16 36.48882 -86.50935 4010 ft 264 kts 114°
2026-05-06 00:16 36.48377 -86.48802 3963 ft 247 kts 114°
2026-05-06 00:16 36.47912 -86.46820 3964 ft 229 kts 115°
2026-05-06 00:17 36.47427 -86.45019 3965 ft 206 kts 128°
2026-05-06 00:17 36.46554 -86.43861 3978 ft 172 kts 163°
2026-05-06 00:17 36.45467 -86.43714 3980 ft 150 kts 201°
2026-05-06 00:17 36.44584 -86.44374 3981 ft 146 kts 216°
2026-05-06 00:18 36.43770 -86.45136 3979 ft 147 kts 216°
2026-05-06 00:18 36.42959 -86.45908 3982 ft 146 kts 219°
2026-05-06 00:18 36.42245 -86.46819 3985 ft 149 kts 226°
2026-05-06 00:18 36.41557 -86.47787 3981 ft 147 kts 225°
2026-05-06 00:19 36.40875 -86.48759 3984 ft 149 kts 225°
2026-05-06 00:19 36.40196 -86.49725 3983 ft 149 kts 225°
2026-05-06 00:19 36.39508 -86.50699 3984 ft 147 kts 225°
2026-05-06 00:19 36.38834 -86.51663 3985 ft 149 kts 226°
2026-05-06 00:20 36.38160 -86.52628 3985 ft 148 kts 226°
2026-05-06 00:20 36.37476 -86.53600 3985 ft 148 kts 225°
2026-05-06 00:20 36.36799 -86.54570 3988 ft 148 kts 226°
2026-05-06 00:20 36.36131 -86.55526 3873 ft 143 kts 225°
2026-05-06 00:21 36.35482 -86.56455 3564 ft 145 kts 225°
2026-05-06 00:21 36.34780 -86.57339 3229 ft 145 kts 208°
2026-05-06 00:21 36.33827 -86.57752 2969 ft 143 kts 196°
2026-05-06 00:21 36.32875 -86.58118 2980 ft 145 kts 200°
2026-05-06 00:22 36.31905 -86.58538 2983 ft 146 kts 199°
2026-05-06 00:22 36.30941 -86.58929 2986 ft 146 kts 199°
2026-05-06 00:22 36.29961 -86.59319 2983 ft 146 kts 199°
2026-05-06 00:22 36.28990 -86.59706 2984 ft 145 kts 199°
2026-05-06 00:23 36.28043 -86.60088 2948 ft 141 kts 198°
2026-05-06 00:23 36.27112 -86.60460 2661 ft 142 kts 199°
2026-05-06 00:23 36.26157 -86.60838 2310 ft 146 kts 198°
2026-05-06 00:23 36.25171 -86.61231 1971 ft 149 kts 198°
2026-05-06 00:24 36.24202 -86.61649 1764 ft 145 kts 197°
2026-05-06 00:24 36.23245 -86.62016 1502 ft 144 kts 196°
2026-05-06 00:24 36.22258 -86.62405 1405 ft 146 kts 196°
2026-05-06 00:24 36.21304 -86.62787 1458 ft 144 kts 198°
2026-05-06 00:25 36.20340 -86.63165 1481 ft 144 kts 195°
2026-05-06 00:25 36.19394 -86.63575 1566 ft 140 kts 197°
2026-05-06 00:25 36.18447 -86.63927 1583 ft 140 kts 192°
2026-05-06 00:25 36.17527 -86.64258 1563 ft 127 kts 198°
2026-05-06 00:26 36.16763 -86.64619 1363 ft 115 kts 196°
2026-05-06 00:26 36.15985 -86.64937 1089 ft 119 kts 195°
2026-05-06 00:26 36.15184 -86.65230 929 ft 119 kts 194°
2026-05-06 00:26 36.14378 -86.65533 766 ft 123 kts 196°
2026-05-06 00:27 36.13558 -86.65847 656 ft 124 kts 196°
2026-05-06 00:27 36.12822 -86.66142 607 ft 82 kts 197°
2026-05-06 00:27 36.12415 -86.66305 607 ft 43 kts 200°
2026-05-06 00:27 36.12201 -86.66392 607 ft 23 kts 198°